Content
SEND FEEDBACK

Daily
Averages
Monthly
Summary
United States of America

EARTH CITY, MISSOURI


Home > North America > United States > Missouri
Elevation: 145 meters     Latitude: 38 46N     Longitude: 090 30W

WEATHER
 
SELECT A DAY
Number of Records: 203,371;   Date Range: 1/1/95 - 7/23/14
 
SHARE

PRINT THIS DATA

[ ← Previous Day ]
WEATHER ALMANAC - 21 FEBRUARY, 2013
[ Next Day → ]
[ °F ]   °C
Weather ElementAverageHighLow
Temperature-2.3 °C1 °C (11:26 pm)-5.6 °C (1:51 am)
Dewpoint-5.5 °C-1 °C (11:26 pm)-10.6 °C (1:51 am)
Humidity79.1 %89 % (11:51 pm)65 % (2:51 am)
Barometer1016.9 hPa1028.1 hPa (1:51 am)1010.2 hPa (10:47 pm)
Wind Speed25.4 km/h38.9 km/h (4:36 pm)
Wind Gust55.5 km/h (4:06 pm)
Weather ElementAverage
Visibility6.1 km
Wind DirectionESE (98.9 °)

Weather ElementTotal
Precipitation51.56 mm
Heating Degree Days20.7 (Base 18.3)
Averaged from 63 records on 21 February, 2013
WEATHER CONDITIONS BREAKOUT
WIND DIRECTION BREAKOUT
WEATHER BY HOUR - 21 FEBRUARY, 2013
[ °F ]   °C
Local TimeTemperatureDewpointHumidityBarometerVisibilityWind DirectionWind SpeedGust SpeedPrecipitationEventsConditions
1:51 AM-5.6 °C-10.6 °C68 %1028.1 hPa16.1 kmEast (80°)9.3 km/hScattered Clouds
2:51 AM-5 °C-10.6 °C65 %1026.8 hPa16.1 kmEast (80°)11.1 km/hMostly Cloudy
3:51 AM-4.4 °C-9.4 °C69 %1026.4 hPa16.1 kmEast (80°)13 km/hMostly Cloudy
4:51 AM-4.4 °C-9.4 °C69 %1024.7 hPa16.1 kmEast (100°)20.4 km/hMostly Cloudy
5:51 AM-3.9 °C-9.4 °C66 %1025.7 hPa16.1 kmEast (90°)18.5 km/hMostly Cloudy
6:51 AM-3.9 °C-8.9 °C69 %1024.4 hPa16.1 kmEast (80°)25.9 km/h35.2 km/hMostly Cloudy
7:51 AM-3.3 °C-8.3 °C69 %1026.1 hPa16.1 kmEast (100°)18.5 km/hMostly Cloudy
8:51 AM-3.3 °C-8.3 °C69 %1025.1 hPa16.1 kmESE (120°)22.2 km/hOvercast
9:51 AM-2.8 °C-8.3 °C66 %1024 hPa16.1 kmESE (110°)27.8 km/h33.3 km/hOvercast
10:07 AM-3 °C-8 °C69 %1021.7 hPa6.4 kmEast (100°)25.9 km/h0 mmSnowLight Snow
10:10 AM-3 °C-8 °C69 %1020.7 hPa3.2 kmEast (90°)29.6 km/h38.9 km/h0 mmSnowLight Snow
10:14 AM-3 °C-8 °C69 %1020.3 hPa2.4 kmEast (90°)35.2 km/h0 mmSnowLight Snow
10:26 AM-3 °C-8 °C69 %1020.3 hPa3.2 kmEast (90°)24.1 km/h46.3 km/h0.76 mmSnowLight Ice Pellets
10:30 AM-3 °C-7 °C74 %1020 hPa6.4 kmEast (80°)24.1 km/h44.4 km/h1.02 mmSnowLight Ice Pellets
10:34 AM-3 °C-7 °C74 %1020 hPa8 kmEast (90°)24.1 km/h35.2 km/h1.02 mmSnowLight Ice Pellets
10:46 AM-3 °C-7 °C74 %1020.7 hPa8 kmEast (100°)20.4 km/h29.6 km/h1.27 mmSnowLight Snow
10:51 AM-3.3 °C-7.2 °C75 %1021 hPa8 kmEast (80°)27.8 km/h1.27 mmSnowLight Snow
10:56 AM-3 °C-7 °C74 %1019.6 hPa4.8 kmEast (100°)31.5 km/h0 mmSnowLight Snow
11:01 AM-3 °C-7 °C74 %1020.3 hPa6.4 kmEast (100°)24.1 km/h0 mmSnowLight Snow
11:07 AM-3 °C-7 °C74 %1018.6 hPa4 kmEast (90°)29.6 km/h0 mmSnowLight Snow
11:19 AM-3 °C-7 °C74 %1017.6 hPa1.9 kmEast (80°)33.3 km/h48.1 km/h0.25 mmSnowLight Snow
11:24 AM-3 °C-7 °C74 %1019 hPa1.6 kmEast (100°)25.9 km/h48.1 km/h0.76 mmSnowIce Pellets
11:28 AM-3 °C-7 °C74 %1019.6 hPa0.8 kmESE (110°)20.4 km/h42.6 km/h1.02 mmSnowSnow
11:31 AM-3 °C-7 °C74 %1020 hPa0.3 kmEast (100°)24.1 km/h38.9 km/h1.52 mmSnowHeavy Snow
11:39 AM-4 °C-6 °C86 %1018.3 hPa0.3 kmEast (80°)33.3 km/h2.54 mmFog-SnowHeavy Snow
11:45 AM-4 °C-6 °C86 %1018.6 hPa0.8 kmEast (80°)27.8 km/h3.3 mmFog-SnowSnow
11:51 AM-3.9 °C-6.1 °C85 %1020.3 hPa0.8 kmEast (80°)22.2 km/h3.3 mmFog-SnowSnow
12:51 PM-3.9 °C-5.6 °C88 %1021.3 hPa0.8 kmNE (50°)14.8 km/h4.57 mmFog-SnowSnow
1:39 PM-4 °C-6 °C86 %1020 hPa0.8 kmNE (40°)14.8 km/h3.05 mmFog-SnowSnow
1:51 PM-3.9 °C-6.1 °C85 %1020.7 hPa0.8 kmENE (60°)16.7 km/h3.56 mmFog-SnowSnow
2:04 PM-4 °C-6 °C86 %1020 hPa0.3 kmEast (80°)16.7 km/h0.76 mmFog-SnowHeavy Snow
2:27 PM-4 °C-6 °C86 %1017.3 hPa0.3 kmEast (80°)29.6 km/h3.81 mmFog-SnowHeavy Snow
2:51 PM-3.9 °C-5.6 °C88 %1017.9 hPa0.3 kmEast (80°)35.2 km/h7.11 mmFog-SnowHeavy Snow
3:17 PM-3 °C-6 °C80 %1014.6 hPa1.3 kmEast (80°)37 km/h48.1 km/h1.02 mmSnowLight Snow
3:22 PM-3 °C-6 °C80 %1013.9 hPa1.6 kmEast (80°)35.2 km/h48.1 km/hSnowLight Snow
3:30 PM-3 °C-6 °C80 %1013.9 hPa2.4 kmEast (80°)35.2 km/h48.1 km/h1.27 mmRain-SnowLight Freezing Rain
3:51 PM-2.8 °C-5 °C85 %1014.6 hPa2.4 kmEast (80°)37 km/h51.8 km/h1.52 mmRainLight Freezing Rain
4:06 PM-2 °C-5 °C80 %1013.2 hPa4.8 kmEast (100°)37 km/h55.5 km/h0.25 mmRainLight Freezing Rain
4:22 PM-2 °C-5 °C80 %1012.5 hPa11.3 kmEast (100°)37 km/h50.1 km/h0.25 mmLight Freezing Drizzle
4:36 PM-2 °C-4 °C86 %1011.5 hPa6.4 kmEast (100°)38.9 km/h50.1 km/h0.25 mmRainLight Freezing Rain
4:51 PM-1.7 °C-4.4 °C82 %1013.9 hPa4.8 kmEast (100°)24.1 km/h40.7 km/h0.51 mmRainLight Freezing Rain
5:22 PM-1 °C-4 °C80 %1011.5 hPa6.4 kmEast (100°)29.6 km/h46.3 km/h0.25 mmRainLight Freezing Rain
5:37 PM-1 °C-4 °C80 %1012.2 hPa11.3 kmESE (110°)25.9 km/h0.25 mmRainLight Freezing Rain
5:44 PM-1 °C-3 °C86 %1011.2 hPa4 kmEast (100°)29.6 km/h37 km/h0.51 mmRainLight Freezing Rain
5:51 PM-1.1 °C-3.3 °C85 %1012.9 hPa4 kmEast (100°)24.1 km/h37 km/h0.76 mmRainLight Freezing Rain
6:07 PM-1 °C-3 °C86 %1011.5 hPa6.4 kmEast (100°)31.5 km/h40.7 km/h0.25 mmRainLight Freezing Rain
6:14 PM-1 °C-3 °C86 %1011.2 hPa11.3 kmESE (110°)33.3 km/h0.25 mmOvercast
6:36 PM-1 °C-3 °C86 %1012.5 hPa9.7 kmESE (120°)25.9 km/h0.25 mmRainLight Freezing Rain
6:42 PM-1 °C-3 °C86 %1011.9 hPa6.4 kmESE (120°)27.8 km/h0.25 mmRainLight Freezing Rain
6:51 PM-0.6 °C-2.8 °C85 %1012.5 hPa6.4 kmESE (110°)27.8 km/h42.6 km/h0.51 mmRainLight Freezing Rain
6:57 PM0 °C-3 °C80 %1011.2 hPa4 kmESE (110°)33.3 km/h40.7 km/h0.25 mmRainLight Freezing Rain
7:08 PM0 °C-3 °C80 %1011.2 hPa6.4 kmESE (120°)33.3 km/h42.6 km/h0.51 mmRainLight Freezing Rain
7:24 PM0 °C-3 °C80 %1011.5 hPa11.3 kmESE (120°)35.2 km/h48.1 km/h0.51 mmOvercast
7:51 PM0 °C-2.8 °C82 %1012.5 hPa11.3 kmESE (120°)33.3 km/h48.1 km/h0.51 mmOvercast
8:19 PM0 °C-3 °C80 %1011.2 hPa6.4 kmSE (130°)25.9 km/h48.1 km/h0 mmRainLight Freezing Rain
8:38 PM0 °C-3 °C80 %1011.2 hPa4.8 kmSE (130°)24.1 km/h40.7 km/h0 mmRainLight Freezing Rain
8:49 PM0 °C-2 °C87 %1011.2 hPa3.2 kmSE (130°)22.2 km/h0 mmRainLight Freezing Rain
9:41 PM0 °C-2 °C87 %1011.2 hPa3.2 kmSE (140°)18.5 km/h0.25 mmLight Freezing Drizzle
9:51 PM0 °C-1.7 °C88 %1012.2 hPa3.2 kmSE (130°)14.8 km/h29.6 km/h0.25 mmLight Freezing Drizzle
10:47 PM0 °C-2 °C87 %1010.2 hPa4.8 kmSE (130°)13 km/h0 mmLight Freezing Drizzle
10:51 PM0 °C-1.7 °C88 %1011.5 hPa4.8 kmSE (130°)11.1 km/h0 mmLight Freezing Drizzle
11:26 PM1 °C-1 °C87 %1010.2 hPa4 kmSE (130°)13 km/h0 mmLight Drizzle
11:51 PM0.6 °C-1.1 °C89 %1011.5 hPa4 kmSSE (150°)7.4 km/h0 mmLight Drizzle
Hourly data recorded from KSTL, located 0 kilometers away from Earth City, Missouri







STORIES FROM OUR PARTNERS